STARLINK-1241 (45195 NORAD) Tracking and Keplerian Element Data

This shows tracking and keplerian element data for the satellite.

Feedback or suggestion? Click here.




ElementValue
Catalog45195
NameSTARLINK-1241
Epoch Orbit648
Epoch Day88.25001157
Epoch Year2020
RAAN79.1668
Inclination52.9971
Eccentricity0.0001205
Argument of Perigee84.4202
Mean Anonmoly52.7359
Mean Motion15.14563026
Decay Rate-0.00097804
L11 45195U 20012T 20088.25001157 -.00097804 00000-0 -52956-2 0 9997
L22 45195 52.9971 79.1668 0001205 84.4202 52.7359 15.14563026 6486

Live tracking and technical data element details for STARLINK-1241 (NORAD 45195). STARLINK-1241 can be tracked NOW for your location showing map with azimuth and elevation plus other details from your city location.

Track the satellite on the map from your city or location and see movement details for azimuth, elevation, latitude, longitude, range, height, and movement on the map or in text.







IsCatalogInMostPopularTable: catalog: 45195, numindb: 6
Update: records affected: 1



GetName: 45195 STARLINK-1241

Hit Count: updated at: Tue, 31 Mar 2020 13:58:18 GMT